Change the Weather History Date:

Monday, May 13, 2013

  Actual Average Record
Temperature  
Mean Temperature 66 °F -  
Max Temperature 79 °F 81 °F 88 °F (2002)
Min Temperature 53 °F 63 °F 53 °F (2013)
Cooling Degree Days 1    
Growing Degree Days 16 (Base 50)    
Moisture  
Dew Point 44 °F    
Average Humidity 52    
Maximum Humidity 89    
Minimum Humidity 23    
Precipitation  
Precipitation 0.00 in - - ()
Sea Level Pressure  
Sea Level Pressure 30.20 in    
Wind  
Wind Speed 8 mph (North)    
Max Wind Speed 14 mph    
Max Gust Speed 20 mph    
Visibility 10 miles    
Events      
Averages and records for this station are not official NWS values.
T = Trace of Precipitation, MM = Missing Value Source: NWS Daily Summary

Daily Weather History Graph

Daily Weather History Graph

Search for Another Location

Airport or City:

Trip Planner

Search our weather history database for the weather conditions in past years. The results will help you decide how hot, cold, wet, or windy it might be!

Date:

Astronomy

May. 13, 2013 Rise Set
Actual Time 5:56 AM CDT 7:35 PM CDT
Civil Twilight 5:30 AM CDT 8:01 PM CDT
Nautical Twilight 4:58 AM CDT 8:33 PM CDT
Astronomical Twilight 4:25 AM CDT 9:06 PM CDT
Moon 8:43 AM CDT (5/13) 10:44 PM CDT (5/13)
Length of Visible Light 14h 31m
Length of Day
13h 39m
Waxing Crescent, 12% of the Moon is Illuminated
May 13
Waxing Crescent
May 17
First Quarter
May 24
Full
May 31
Last Quarter
Jun 8
New

Hourly Weather History & Observations

Time (CDT) Temp. Dew Point Humidity Pressure Visibility Wind Dir Wind Speed Gust Speed Precip Events Conditions
12:56 AM 63.0 °F 46.0 °F 54% 30.12 in 10.0 mi North 6.9 mph - N/A   Clear
1:56 AM 62.1 °F 45.0 °F 53% 30.12 in 10.0 mi North 11.5 mph - N/A   Clear
2:56 AM 61.0 °F 42.1 °F 50% 30.14 in 10.0 mi North 8.1 mph - N/A   Clear
3:56 AM 57.9 °F 42.1 °F 56% 30.16 in 10.0 mi North 6.9 mph - N/A   Clear
4:56 AM 55.9 °F 42.1 °F 60% 30.16 in 10.0 mi North 5.8 mph - N/A   Clear
5:56 AM 53.1 °F 43.0 °F 69% 30.20 in 10.0 mi North 5.8 mph - N/A   Partly Cloudy
6:56 AM 57.0 °F 43.0 °F 59% 30.23 in 10.0 mi North 6.9 mph - N/A   Scattered Clouds
7:56 AM 62.1 °F 43.0 °F 50% 30.26 in 10.0 mi NNE 6.9 mph - N/A   Mostly Cloudy
8:56 AM 66.0 °F 39.9 °F 38% 30.26 in 10.0 mi NNE 9.2 mph - N/A   Mostly Cloudy
9:56 AM 69.1 °F 37.9 °F 32% 30.27 in 10.0 mi NE 12.7 mph - N/A   Mostly Cloudy
10:56 AM 71.1 °F 37.9 °F 30% 30.27 in 10.0 mi NE 8.1 mph - N/A   Mostly Cloudy
11:56 AM 75.0 °F 37.0 °F 25% 30.26 in 10.0 mi NE 10.4 mph - N/A   Mostly Cloudy
12:56 PM 75.0 °F 36.0 °F 24% 30.24 in 10.0 mi NNW 10.4 mph 16.1 mph N/A   Mostly Cloudy
1:56 PM 78.1 °F 39.0 °F 25% 30.22 in 10.0 mi North 10.4 mph 16.1 mph N/A   Scattered Clouds
3:56 PM 79.0 °F 37.9 °F 23% 30.19 in 10.0 mi North 13.8 mph 19.6 mph N/A   Scattered Clouds
4:56 PM 73.0 °F 50.0 °F 44% 30.19 in 10.0 mi SSW 12.7 mph - N/A   Clear
5:56 PM 73.0 °F 48.9 °F 42% 30.18 in 10.0 mi SW 9.2 mph - N/A   Partly Cloudy
6:56 PM 71.1 °F 50.0 °F 47% 30.18 in 10.0 mi SW 3.5 mph - N/A   Partly Cloudy
7:56 PM 63.0 °F 53.1 °F 70% 30.19 in 10.0 mi Calm Calm - N/A   Partly Cloudy
8:56 PM 57.9 °F 53.1 °F 84% 30.20 in 10.0 mi Calm Calm - N/A   Clear
9:56 PM 57.0 °F 51.1 °F 81% 30.22 in 10.0 mi NW 3.5 mph - N/A   Clear
10:56 PM 55.0 °F 51.1 °F 86% 30.21 in 10.0 mi Calm Calm - N/A   Clear
11:56 PM 53.1 °F 50.0 °F 89% 30.21 in 10.0 mi Calm Calm - N/A   Clear